Location: Cuzcurrita-R�o Tir�n
(42.5415°N, 2.9642°W)
Time: 17:15:32
(UTC+00:00)

SKYMED 2 - Pass Details

Date: 17 January 2021
Orbit: 621 x 623 km, 97.9° (Epoch: 02 March)

Event Time Altitude Azimuth Distance (km) Brightness Sun altitude
Rises 17:51:11 0° 19° (NNE) 2,913 6.6 -8.3°
Reaches altitude 10° 17:53:29 10° 26° (NNE) 2,002 5.8 -8.7°
Maximum altitude 17:57:38 43° 99° (E) 882 4.0 -9.4°
Drops below altitude 10° 18:01:45 10° 171° (S) 1,985 6.3 -10.2°
Sets 18:04:00 0° 178° (S) 2,886 7.2 -10.6°
